Regional Weather Roundup
Issued by NWS

Home | Current Version | Previous Version | Text Only | Print | Product List | Glossary Off
Versions: 1 2 3 4 5 6 7 8 9 10 11 12 13 14 15 16 17 18 19 20 21 22 23 24 25 26 27 28 29 30 31 32 33 34 35 36 37 38 39 40 41 42 43 44 45 46 47 48 49 50

000
ASUS43 KLMK 220910
RWRKY
KENTUCKY REGIONAL WEATHER ROUNDUP
NATIONAL WEATHER SERVICE LOUISVILLE KY
500 AM EDT TUE APR 22 2014

NOTE "FAIR" INDICATES FEW OR NO CLOUDS BELOW 12,000 FEET
WITH NO SIGNIFICANT WEATHER AND/OR OBSTRUCTIONS TO VISIBILITY.

KYZ001>023-026-027-061>063-070>075-221000-
WESTERN AND SOUTH CENTRAL KENTUCKY

CITY           SKY/WX    TMP DP  RH WIND       PRES   REMARKS
PADUCAH        CLOUDY    64  61  90 SW7       29.86F FOG
HENDERSON      CLOUDY    61  55  82 W6        29.84F
OWENSBORO      CLOUDY    60  60 100 SW5       29.85S
HOPKINSVILLE   DRIZZLE   63  63 100 W10       29.87S
BOWLING GREEN  CLOUDY    63  56  78 SW3       29.86F
GLASGOW        CLOUDY    59  58  97 CALM      29.86F
$$

KYZ024-025-028>034-038-045-046-053-221000-
NORTH CENTRAL KENTUCKY

CITY           SKY/WX    TMP DP  RH WIND       PRES   REMARKS
LOUISVILLE/SDF CLOUDY    64  56  75 W7        29.82F
LOUISVILLE/LOU CLOUDY    65  56  72 SW5       29.83S
FORT KNOX      CLOUDY    60  57  91 SW5       29.83F
$$

KYZ035>037-039>044-047>052-055>060-089>105-221000-
NORTHEAST KENTUCKY

CITY           SKY/WX    TMP DP  RH WIND       PRES   REMARKS
LEXINGTON      CLOUDY    60  56  86 S6        29.84F
COVINGTON      CLOUDY    62  54  74 W8        29.80F
FRANKFORT      CLOUDY    59  56  89 SW6       29.82F
$$

KYZ054-064>069-076>088-106>120-221000-
SOUTHEAST KENTUCKY

CITY           SKY/WX    TMP DP  RH WIND       PRES   REMARKS
JACKSON        CLOUDY    64  46  52 VRB3      29.84F
LONDON         CLOUDY    65  48  54 SW5       29.85F
SOMERSET       CLOUDY    63  48  59 W3        29.87F
MIDDLESBORO    CLOUDY    57  53  86 CALM      29.87F
MONTICELLO     PTSUNNY   58  53  83 CALM      29.88F
$$




USA.gov is the U.S. government's official web portal to all federal, state and local government web resources and services.